Location: *
(32.8667°N, 13.1833°E)
Time: 03:05:18
(UTC+00:00)

USA 267 - Pass Details

Date: 18 July 2019
Orbit: 1098 x 1109 km, 123.0° (Epoch: 24 August)

Event Time Altitude Azimuth Distance (km) Brightness Sun altitude
Exits shadow 20:47:02 54° 119° (ESE) 1,321 3.3 -25.8°
Maximum altitude 20:48:41 78° 45° (NE) 1,124 3.2 -26.0°
Drops below altitude 10° 20:55:14 10° 321° (NW) 2,964 6.5 -26.9°
Sets 20:57:43 0° 320° (NW) 3,926 7.5 -27.2°
